Simultaneous Nadir Overpasses (SNOs) Predictions

Prediction of SNOs between METOP-A and TERRA Satellite Orbit:

Table of predicted SNOs for the next 14.0 days since TLE Epoch: 4/27/2019
Index Date (METOP-A) Time (METOP-A) Lat,Lon (METOP-A) SZA (METOP-A ) Date (TERRA) Time (TERRA) Lat,Lon (TERRA) SZA (TERRA ) Distance(km) Time Diff (sec)
1 04/29/2019 01:55:40 81.46,-159.22 70.30 04/29/2019 01:56:40 81.45,-159.10 70.33 2.19 60
2 04/29/2019 02:46:19 -81.45, 8.90 109.63 04/29/2019 02:46:06 -81.46, 8.79 109.65 2.08 13
3 05/01/2019 21:29:52 81.45, -92.65 69.46 05/01/2019 21:30:54 81.45, -92.47 69.52 2.91 62
4 05/01/2019 22:20:32 -81.45, 75.10 110.50 05/01/2019 22:20:21 -81.45, 75.04 110.52 0.93 11
5 05/04/2019 17:04:05 81.45, -26.09 68.66 05/04/2019 17:05:10 81.45, -26.25 68.67 2.85 65
6 05/04/2019 17:54:45 -81.45, 141.69 111.30 05/04/2019 17:54:36 -81.46, 141.67 111.30 1.05 9
7 05/07/2019 12:38:18 81.45, 40.46 67.89 05/07/2019 12:39:25 81.45, 40.34 67.91 1.97 67
8 05/07/2019 13:28:59 -81.45,-152.14 112.12 05/07/2019 13:28:52 -81.45,-152.10 112.12 0.69 7
9 05/10/2019 08:12:30 81.45, 107.01 67.16 05/10/2019 08:13:39 81.46, 106.93 67.18 1.64 69




NCC Satellite Simultaneous Nadir Overpasses (SNOs) Prediction Service
